THOR ABLESTAR DEB, 403

Orbit data source: Space-Track

THOR ABLESTAR DEB, 403 is space debris in LEO originally from a launch on Thu, 29 Jun 1961 UTC launched from the Air Force Eastern Test Range (AFETR). Debris objects in space refer to the collection of defunct objects orbiting the Earth. Examples of debris include non-operational satellites, rocket bodies, and fragments generated from explosions, collisions, or faulty payload assembly.

Loading next visibility...
Identifier
403, 1961-015EC
Orbit
LEO
Country
Flag of USUS
Related business
Manufacturer
Unknown
Mission
Spacecraft
Bus & Motor
Unknown
Mass
Unknown
Launch date (UTC)
1961-06-29 (64 years ago)
Launch vehicle
Unknown
Launch site
Air Force Eastern Test Range (AFETR)
Object type
Payload
Rocket body
Debris
Shape & HBR
Unknown
Radar Cross Section
Small (<0.1 m²)

Expand to show TLE details & history
Last TLE update: 16 hours ago

TLE from 16 hours ago
0 THOR ABLESTAR DEB
1 00403U 61015EC  25260.93562907 -.00000008  00000-0  62684-4 0  9995
2 00403  66.8404 219.1594 0021287 348.5896  77.9089 13.81172610233559
Epoch: 2025-09-17T22:27Z
TLE epoch observation values (Epoch: 2025-09-17T22:27:18.351Z)
Latitude
57.75234°
Longitude
-72.35618°
Altitude
965.371 km
Speed
7.377 km/s
True Right ascension
17h 26m 17s
True Declination
57° 36' 05"
Sunlit
Object was in daylight at epoch
Visualization orbit readout
Latitude
Unknown
Longitude
Unknown
Altitude
Unknown
Speed
Unknown
Apparent Right ascension
Unknown
Apparent Declination
Unknown
Sunlit
N/A
Visualization observer readout
Local Sidereal Time
07:28:08
Azimuth
Unknown
Elevation
Unknown
Doppler factor
Unknown
Orbital elements
Apogee altitude
973.744 km
Perigee altitude
942.51 km
Semi-major axis
7,336.264 km
Eccentricity
0.00213
Inclination
66.8404°
RAAN
219.1594°
Arg. of periapsis
348.5896°
True anomaly
78.14755°
Mean anomaly
77.9089°
Eccentric anomaly
78.02821°
Mean motion
3.45407 °/min
Orbital period
104.22 mins
BSTAR
0.000062684
Loading maneuver chart data...
Computing Atmospheric mass density...

Documentation

Showing up to 5 results
|